"TOA5","AWS1","CR1000","7964","CR1000.Std.14","CPU:AWS1_114.CR1","64363","TBL110"
"TIMESTAMP","RECORD","Wind_spd_WVc(1)","Wind_spd_WVc(2)","Air_Temp_Avg","Humidity_Avg","SW_upper_Wm2_Avg","Rain_Tot","Press_Avg","Issui_Tot","Depth_cm","SR50A_Raw","Quality","Ground_Temp_Avg(1)","Ground_Temp_Avg(2)","SW_lower_Wm2_Avg","Albedo_Avg","SWC_per(1)","SWC_per(2)","Period(1)","Period(2)"
"TS","RN","","","","","","","","","","","","","","","","","","",""
"","","WVc","WVc","Avg","Avg","Avg","Tot","Avg","Tot","Smp","Smp","Smp","Avg","Avg","Avg","Avg","Smp","Smp","Smp","Smp"
"2016-11-06 00:00:00",260701,0.592,183.1,7.551,51.1,0.452211,0,864.7178,0,-0.928,3.146,195,7.801,9.36,0.6445388,0.824,50.88,58.15,33.52,35.25
"2016-11-06 00:10:00",260702,0.553,180.4,7.361,54.1,0,0,864.7574,0,-1.004,3.15,203,7.773,9.38,0.1326896,0,50.88,58.15,33.52,35.25
"2016-11-06 00:20:00",260703,0.5,232.9,7.119,55.19,0,0,864.9238,0,-0.872,3.148,210,7.777,9.38,0,0,50.83,58.15,33.5,35.25
"2016-11-06 00:30:00",260704,0.343,281.8,7.057,55.37,0,0,864.9722,0,-0.923,3.149,201,7.775,9.35,0,0,50.88,58.15,33.52,35.25
"2016-11-06 00:40:00",260705,0.475,295.8,6.901,57.71,0,0,865.1324,0,-1.13,3.153,208,7.775,9.35,0.06065347,0,50.88,58.15,33.52,35.25
"2016-11-06 00:50:00",260706,0.519,251.3,6.332,67.44,0,0,865.2167,0,-1.292,3.159,201,7.739,9.34,0,0,50.88,58.15,33.52,35.25
"2016-11-06 01:00:00",260707,0.242,194.7,5.757,73.22,0,0,865.2441,0,-1.141,3.158,200,7.683,9.31,0.1061435,0,50.88,58.15,33.52,35.25
"2016-11-06 01:10:00",260708,0.36,247.4,6.005,71.82,0,0,865.4505,0,-1.29,3.158,195,7.618,9.27,0.7354227,0,50.83,58.15,33.5,35.25
"2016-11-06 01:20:00",260709,0.398,211.3,5.915,74.68,0,0,865.4758,0,-1.471,3.162,199,7.604,9.25,0.5610441,0,50.83,58.15,33.5,35.25
"2016-11-06 01:30:00",260710,0.665,193.6,5.575,79.38,0,0,865.5959,0,-2.431,3.172,177,7.603,9.26,0.2198686,0,50.88,58.15,33.52,35.25
"2016-11-06 01:40:00",260711,0.604,262.1,5.342,86.4,0,0,865.7834,0,-2.156,3.171,187,7.611,9.28,0.06444426,0,50.88,58.15,33.52,35.25
"2016-11-06 01:50:00",260712,0.742,278.3,5.327,88.9,0,0,865.973,0,-1.551,3.165,190,7.634,9.3,0.4397373,0,50.88,58.15,33.52,35.25
"2016-11-06 02:00:00",260713,0.681,207.7,5.445,90.8,0,0,865.9814,0,-1.172,3.161,187,7.642,9.3,0.4018289,0,50.88,58.15,33.52,35.25
"2016-11-06 02:10:00",260714,0.633,252.4,5.432,93.7,0,0,865.9814,0,-1.397,3.162,186,7.639,9.3,0.3904564,0,50.83,58.15,33.5,35.25
"2016-11-06 02:20:00",260715,0.64,199.7,5.538,94.3,0,0,865.9772,0,-1.121,3.16,194,7.618,9.3,0.4549007,0,50.88,58.09,33.52,35.24
"2016-11-06 02:30:00",260716,0.829,186.4,5.487,94.5,0,0,865.7708,0,-1.195,3.16,195,7.604,9.3,0.4094106,0,50.88,58.09,33.52,35.24
"2016-11-06 02:40:00",260717,0.783,190.9,5.486,93.9,0,0,865.7286,0,-1.17,3.16,194,7.603,9.31,0.4549007,0,50.88,58.09,33.52,35.24
"2016-11-06 02:50:00",260718,0.763,174.3,5.508,94,0,0,865.5896,0,-1.222,3.161,194,7.603,9.32,0.4549007,0,50.83,58.09,33.5,35.24
"2016-11-06 03:00:00",260719,0.538,205.6,5.552,92,0,0,865.4821,0,-1.195,3.16,190,7.603,9.33,0.5345083,0,50.88,58.09,33.52,35.24
"2016-11-06 03:10:00",260720,0.425,252.5,5.653,89.3,0,0,865.5074,0,-0.69,3.155,177,7.603,9.29,0.6785601,0,50.88,58.15,33.52,35.25
"2016-11-06 03:20:00",260721,0.537,285.1,5.824,86.5,0,0,865.6401,0,-1.141,3.158,177,7.606,9.26,0.962873,0,50.88,58.09,33.52,35.24
"2016-11-06 03:30:00",260722,0.662,281.2,5.861,86.6,0,0,865.7771,0,-0.939,3.156,190,7.626,9.25,0.9249647,0,50.83,58.09,33.5,35.24
"2016-11-06 03:40:00",260723,0.962,296.3,5.755,89.1,0,0,865.9814,0,-1.244,3.16,195,7.654,9.25,0.6065342,0,50.83,58.09,33.5,35.24
"2016-11-06 03:50:00",260724,1.472,272.9,5.572,90.8,0,0,866.0615,0,-1.498,3.163,188,7.736,9.25,0.4094106,0,50.83,58.09,33.5,35.24
"2016-11-06 04:00:00",260725,0.433,199,5.48,92.1,0,0,866.1901,0,-1.598,3.164,197,7.757,9.22,0.2691495,0,50.83,58.09,33.5,35.24
"2016-11-06 04:10:00",260726,0.502,195,5.482,93.7,0,0,866.2343,0,-1.5,3.164,197,7.764,9.19,0.3373846,0,50.83,58.09,33.5,35.24
"2016-11-06 04:20:00",260727,0.626,206.9,5.415,94,0,0,866.2343,0,-1.5,3.164,183,7.774,9.17,0.3904564,0,50.88,58.09,33.52,35.24
"2016-11-06 04:30:00",260728,0.748,216,5.457,92.7,0,0,866.2532,0,-1.347,3.162,179,7.773,9.17,0.4549007,0,50.83,58.15,33.5,35.25
"2016-11-06 04:40:00",260729,0.285,237.3,5.483,92.2,0,0,866.4745,0,-1.323,3.162,187,7.773,9.16,0.4549007,0,50.83,58.09,33.5,35.24
"2016-11-06 04:50:00",260730,0.792,250.5,5.634,89.5,0,0,866.5251,0,-1.444,3.161,183,7.773,9.17,0.7505861,0,50.83,58.15,33.5,35.25
"2016-11-06 05:00:00",260731,0.912,289.1,5.824,87.6,0,0,866.5167,0,-1.646,3.163,185,7.774,9.16,0.7960761,0,50.83,58.09,33.5,35.24
"2016-11-06 05:10:00",260732,0.402,237.9,5.612,89,0,0,866.6852,0,-1.525,3.164,192,7.774,9.16,0.4965999,0,50.83,58.09,33.5,35.24
"2016-11-06 05:20:00",260733,0.559,196.3,5.426,91.9,0,0,866.8053,0,-1.399,3.163,182,7.771,9.17,0.4283648,0,50.83,58.09,33.5,35.24
"2016-11-06 05:30:00",260734,0.614,209.2,5.468,92.1,0,0,866.9528,0,-1.347,3.162,187,7.766,9.18,0.4549007,0,50.83,58.15,33.5,35.25
"2016-11-06 05:40:00",260735,0.516,208.5,5.497,92,0,0,866.9802,0,-1.448,3.163,187,7.751,9.18,0.4549007,0,50.83,58.09,33.5,35.24
"2016-11-06 05:50:00",260736,0.721,247,5.437,92.9,0,0,866.9885,0,-1.574,3.164,197,7.722,9.18,0.4511098,0,50.83,58.09,33.5,35.24
"2016-11-06 06:00:00",260737,0.48,222.4,5.522,91.4,0,0,866.9928,0,-1.574,3.164,189,7.696,9.2,0.4852274,0,50.83,58.09,33.5,35.24
"2016-11-06 06:10:00",260738,0.415,235.1,5.529,91.1,0,0,866.9928,0,-1.851,3.166,188,7.69,9.2,0.5762075,0,50.83,58.15,33.5,35.25
"2016-11-06 06:20:00",260739,0.854,271.1,5.777,86.5,0,0,867.0855,0,-1.669,3.162,191,7.689,9.19,1.012154,0,50.83,58.09,33.5,35.24
"2016-11-06 06:30:00",260740,0.671,303.1,5.886,85.2,1.089061,0,867.3278,0,-1.595,3.162,190,7.692,9.19,1.201696,0.887,50.83,58.09,33.5,35.24
"2016-11-06 06:40:00",260741,0.62,257,5.824,86.6,4.395561,0,867.4964,0,-1.523,3.163,194,7.704,9.2,1.478427,0.361,50.83,58.09,33.5,35.24
"2016-11-06 06:50:00",260742,0.672,237.5,5.544,90.5,11.40959,0,867.4985,0,-1.549,3.164,186,7.715,9.2,2.247967,0.202,50.83,58.09,33.5,35.24
"2016-11-06 07:00:00",260743,0.596,279.2,5.333,93.6,23.58191,0,867.5975,0,-1.45,3.164,178,7.732,9.2,3.764303,0.16,50.83,58.09,33.5,35.24
"2016-11-06 07:10:00",260744,1.005,284.2,5.27,94.5,26.88448,0,867.7386,0,-1.752,3.167,191,7.772,9.21,3.783257,0.139,50.88,58.09,33.52,35.24
"2016-11-06 07:20:00",260745,1.517,284.3,5.254,93.1,33.63509,0,867.785,0,-1.575,3.165,194,7.805,9.21,4.594496,0.135,50.83,58.09,33.5,35.24
"2016-11-06 07:30:00",260746,1.606,272.3,5.304,90.9,42.33578,0,867.9831,0,-1.551,3.165,201,7.829,9.21,5.65214,0.133,50.83,58.09,33.5,35.24
"2016-11-06 07:40:00",260747,1.298,263.8,5.295,89.5,58.95085,0,867.9915,0,-1.551,3.165,214,7.835,9.24,8.536968,0.144,50.83,58.09,33.5,35.24
"2016-11-06 07:50:00",260748,1.009,271.3,5.299,90.4,71.57531,0,868.0273,0,-1.955,3.169,198,7.839,9.24,9.99265,0.138,50.83,58.09,33.5,35.24
"2016-11-06 08:00:00",260749,1.296,288.7,5.317,88.7,65.23753,0,868.1474,0,-1.248,3.162,196,7.855,9.25,8.900889,0.135,50.83,58.15,33.5,35.25
"2016-11-06 08:10:00",260750,0.904,288.2,5.332,87.9,78.53429,0,868.2928,0,-1.043,3.159,193,7.861,9.25,12.60075,0.161,50.83,58.09,33.5,35.24
"2016-11-06 08:20:00",260751,0.743,271.4,5.304,87.6,85.67806,0,868.3665,0,-2.408,3.173,194,7.856,9.24,13.84414,0.161,50.83,58.09,33.5,35.24
"2016-11-06 08:30:00",260752,0.765,309.1,5.494,86,110.8169,0,868.5098,0,-2.002,3.168,182,7.821,9.21,18.75328,0.169,50.83,58.09,33.5,35.24
"2016-11-06 08:40:00",260753,1.38,306.8,5.303,87.5,169.2252,0,868.6088,0,-1.453,3.166,187,7.792,9.2,25.01195,0.148,50.83,58.09,33.5,35.24
"2016-11-06 08:50:00",260754,1.004,260.8,4.81,92.1,131.3243,0,868.7479,0,-2.01,3.173,198,7.783,9.21,17.98753,0.136,50.77,58.15,33.49,35.25
"2016-11-06 09:00:00",260755,0.724,289.5,4.737,93.4,132.5981,0,868.7289,0,-2.666,3.18,209,7.781,9.22,17.61603,0.131,50.83,58.09,33.5,35.24
"2016-11-06 09:10:00",260756,1.238,306.6,4.594,94,117.6422,0,868.75,0,-1.757,3.17,198,7.777,9.22,15.57277,0.13,50.83,58.09,33.5,35.24
"2016-11-06 09:20:00",260757,0.517,327.9,4.988,91.9,151.3599,0,868.7626,0,-1.702,3.167,201,7.777,9.23,22.28255,0.146,50.83,58.09,33.5,35.24
"2016-11-06 09:30:00",260758,0.661,320.4,5.07,88.8,132.5509,0,868.8954,0,-2.336,3.175,194,7.787,9.2,19.19681,0.144,50.83,58.03,33.5,35.22
"2016-11-06 09:40:00",260759,1.282,311.7,4.525,91.6,174.7019,0,869.0113,0,-1.861,3.173,194,7.811,9.2,26.00894,0.147,50.77,58.09,33.49,35.24
"2016-11-06 09:50:00",260760,0.857,280.4,4.52,92.3,169.1662,0,869.0281,0,-1.858,3.171,196,7.855,9.21,24.97404,0.146,50.83,58.09,33.5,35.24
"2016-11-06 10:00:00",260761,0.747,278.1,4.922,89.6,222.3848,0,869.1039,0,-0.998,3.161,218,7.899,9.19,34.28056,0.154,50.83,58.09,33.5,35.24
"2016-11-06 10:10:00",260762,0.431,309.5,5.185,88.3,179.1368,0,869.203,0,-2.61,3.175,194,7.867,9.16,27.13103,0.151,50.77,58.09,33.49,35.24
"2016-11-06 10:20:00",260763,0.619,242.4,5.406,85.9,185.7302,0,869.1988,0,-1.296,3.161,181,7.863,9.16,29.29181,0.156,50.83,58.09,33.5,35.24
"2016-11-06 10:30:00",260764,0.459,280.1,5.69,83.3,248.935,0,869.0576,0,-1.24,3.158,188,7.955,9.16,43.97752,0.175,50.83,58.09,33.5,35.24
"2016-11-06 10:40:00",260765,0.92,345.2,6.014,80.6,236.2319,0,869.1376,0,-1.265,3.158,210,8,9.16,38.13584,0.161,50.83,58.03,33.5,35.22
"2016-11-06 10:50:00",260766,0.559,279.3,5.879,82.6,283.4115,0,869.1903,0,-1.519,3.161,196,7.95,9.13,46.12313,0.162,50.83,58.09,33.5,35.24
"2016-11-06 11:00:00",260767,0.433,314.9,5.721,83.8,191.3721,0,869.3163,0,-0.333,3.15,189,7.945,9.13,29.87181,0.155,50.77,58.09,33.49,35.24
"2016-11-06 11:10:00",260768,0.771,21.08,5.542,83.7,136.0422,0,869.3854,0,-0.667,3.156,196,7.977,9.13,20.24308,0.148,50.83,58.03,33.5,35.22
"2016-11-06 11:20:00",260769,0.418,19.95,5.198,85.6,181.9794,0,869.2828,0,-0.263,3.152,204,8.05,9.14,28.08253,0.154,50.83,58.03,33.5,35.22
"2016-11-06 11:30:00",260770,0.33,25.55,5.3,84.5,159.4708,0,869.2244,0,-0.846,3.159,200,8.04,9.15,24.52294,0.153,50.77,58.09,33.49,35.24
"2016-11-06 11:40:00",260771,0.569,39.15,5.228,83.2,163.9529,0,869.221,0,-1.149,3.162,191,8.09,9.15,26.00136,0.158,50.83,58.09,33.5,35.24
"2016-11-06 11:50:00",260772,0.598,27.7,5.154,82.4,195.7008,0,869.2287,0,-1.248,3.162,190,8.13,9.15,30.84985,0.157,50.83,58.03,33.5,35.22
"2016-11-06 12:00:00",260773,0.722,322.8,5.328,81.9,233.8769,0,869.2344,0,-1.902,3.167,181,8.15,9.15,37.62407,0.16,50.83,58.03,33.5,35.22
"2016-11-06 12:10:00",260774,0.895,296.3,5.34,81.6,278.1431,0,869.2426,0,-1.022,3.16,187,8.12,9.14,43.80693,0.157,50.83,58.03,33.5,35.22
"2016-11-06 12:20:00",260775,0.82,317.7,4.862,83.9,208.3764,0,869.2538,0,-0.749,3.16,198,8.09,9.15,32.00226,0.152,50.77,58.03,33.49,35.22
"2016-11-06 12:30:00",260776,0.334,269,4.801,84.9,149.74,0,869.2494,0,-0.749,3.16,194,8.21,9.16,22.42281,0.15,50.77,58.03,33.49,35.22
"2016-11-06 12:40:00",260777,0.418,307.4,4.695,84.5,129.2169,0,869.2552,0,-0.6,3.16,197,8.21,9.16,19.23471,0.149,50.77,58.03,33.49,35.22
"2016-11-06 12:50:00",260778,0.134,132.7,4.756,83.8,111.4656,0,869.3362,0,-0.796,3.159,192,8.21,9.16,16.52806,0.148,50.77,58.03,33.49,35.22
"2016-11-06 13:00:00",260779,0.496,337.6,4.878,82.3,136.5848,0,869.4918,0,-0.547,3.158,193,8.26,9.16,21.13013,0.154,50.83,58.09,33.5,35.24
"2016-11-06 13:10:00",260780,0.483,341.6,4.898,81.3,331.7194,0,869.4515,0,-1.098,3.161,193,8.33,9.16,51.92691,0.158,50.77,58.03,33.49,35.22
"2016-11-06 13:20:00",260781,0.434,278,5.419,78.96,230.1969,0,869.3886,0,-1.928,3.168,205,8.3,9.13,35.12212,0.153,50.83,58.03,33.5,35.22
"2016-11-06 13:30:00",260782,0.57,321.1,5.158,79.63,181.0791,0,869.4067,0,-1.88,3.169,198,8.36,9.14,27.53665,0.152,50.77,58.03,33.49,35.22
"2016-11-06 13:40:00",260783,0.475,261.8,4.928,81,144.5031,0,869.3781,0,-1.053,3.164,191,8.4,9.14,21.09223,0.145,50.77,58.03,33.49,35.22
"2016-11-06 13:50:00",260784,0.305,267.1,4.701,83.3,95.21227,0,869.4891,0,-1.078,3.164,196,8.38,9.13,13.87826,0.145,50.72,58.09,33.47,35.24
"2016-11-06 14:00:00",260785,0.321,294.9,4.506,84.3,100.2442,0,869.4875,0,-0.9,3.163,192,8.42,9.13,14.75007,0.147,50.77,58.03,33.49,35.22
"2016-11-06 14:10:00",260786,0.418,283.3,4.662,83.6,66.31005,0,869.4703,0,-1.051,3.164,192,8.47,9.15,9.480772,0.143,50.77,58.09,33.49,35.24
"2016-11-06 14:20:00",260787,0.292,283.3,4.341,84.8,49.8213,0,869.5076,0,-0.929,3.165,187,8.54,9.16,7.043335,0.141,50.77,58.09,33.49,35.24
"2016-11-06 14:30:00",260788,0.349,272.1,4.063,86.2,53.05721,0,869.5193,0,-0.982,3.167,188,8.51,9.16,7.589242,0.142,50.77,58.03,33.49,35.22
"2016-11-06 14:40:00",260789,0.356,264.8,3.768,86.6,41.41574,0,869.5206,0,-0.756,3.166,182,8.5,9.16,5.720369,0.138,50.72,58.03,33.47,35.22
"2016-11-06 14:50:00",260790,0.382,283,3.597,87.6,30.91831,0,869.561,0,-0.682,3.166,197,8.47,9.16,4.408742,0.143,50.77,58.09,33.49,35.24
"2016-11-06 15:00:00",260791,0.259,295.8,3.488,88.7,30.39934,0,869.6327,0,-0.707,3.166,179,8.47,9.16,4.571748,0.15,50.77,58.03,33.49,35.22
"2016-11-06 15:10:00",260792,0.353,285.8,3.51,88.9,26.76652,0,869.7507,0,-0.961,3.171,197,8.51,9.16,4.067567,0.152,50.77,58.09,33.49,35.24
"2016-11-06 15:20:00",260793,0.396,283.8,3.091,90.6,24.01831,0,869.8603,0,-0.936,3.172,194,8.56,9.16,3.506524,0.146,50.77,58.03,33.49,35.22
"2016-11-06 15:30:00",260794,0.318,285.8,2.719,92.6,19.81147,0,870.0225,0,-0.863,3.174,194,8.6,9.17,2.884826,0.146,50.77,58.03,33.49,35.22
"2016-11-06 15:40:00",260795,0.337,292.9,2.514,94.3,16.73693,0,870.0267,0,-0.912,3.175,194,8.64,9.17,2.464044,0.147,50.72,58.03,33.47,35.22
"2016-11-06 15:50:00",260796,0.306,289.4,2.306,95.8,11.35851,0,870.0267,0,-0.715,3.174,198,8.64,9.2,1.637647,0.145,50.77,58.03,33.49,35.22
"2016-11-06 16:00:00",260797,0.198,322.9,2.264,96.8,10.20293,0,870.0267,0,-0.921,3.176,199,8.65,9.22,1.671819,0.164,50.72,58.03,33.47,35.22
"2016-11-06 16:10:00",260798,0.236,26.75,2.158,97.8,9.67285,0,870.0267,0,-0.738,3.175,200,8.67,9.25,1.61128,0.166,50.72,58.03,33.47,35.22
"2016-11-06 16:20:00",260799,0.093,9.65,2.168,98.2,6.677234,0,870.0651,0,-1.151,3.179,195,8.69,9.28,1.110937,0.166,50.72,58.03,33.47,35.22
"2016-11-06 16:30:00",260800,0.204,305.3,2.04,98.5,4.345613,0,870.1957,0,-1.285,3.181,195,8.71,9.3,0.6749496,0.154,50.72,58.03,33.47,35.22
"2016-11-06 16:40:00",260801,0.189,309,1.95,99.6,2.029351,0,870.3232,0,-1.188,3.181,202,8.72,9.31,0.3754097,0.187,50.72,58.03,33.47,35.22
"2016-11-06 16:50:00",260802,0.174,305.9,1.85,100,0.5742074,0,870.5085,0,-1.166,3.181,199,8.73,9.31,0.1933968,0.429,50.72,58.03,33.47,35.22
"2016-11-06 17:00:00",260803,0.045,7.154,1.908,100,0.003932952,0,870.4348,0,-1.417,3.184,191,8.73,9.31,0.1820218,0.016,50.72,58.03,33.47,35.22
"2016-11-06 17:10:00",260804,0.155,333.9,1.765,100,0,0,870.3535,0,-1.567,3.185,194,8.73,9.32,0.04171342,0,50.72,58.03,33.47,35.22
"2016-11-06 17:20:00",260805,0.12,325.7,1.74,100,0,0,870.4094,0,-1.717,3.187,198,8.73,9.32,0.1858144,0,50.72,58.03,33.47,35.22
"2016-11-06 17:30:00",260806,0.215,352.9,1.689,100,0,0,870.4893,0,-1.767,3.187,196,8.73,9.34,0.1896065,0,50.72,58.03,33.47,35.22
"2016-11-06 17:40:00",260807,0.184,290.2,1.638,100,0,0,870.6166,0,-1.742,3.188,196,8.73,9.36,0.2313199,0,50.72,58.03,33.47,35.22
"2016-11-06 17:50:00",260808,0.253,322.3,1.454,100,0,0,870.6865,0,-1.716,3.189,195,8.69,9.36,0.0758426,0,50.66,58.03,33.46,35.22
"2016-11-06 18:00:00",260809,0.13,356.4,1.296,100,0,0,870.8677,0,-1.617,3.189,194,8.65,9.36,0.007584261,0,50.72,58.03,33.47,35.22
"2016-11-06 18:10:00",260810,0.08,310.5,1.298,100,0,0,870.8888,0,-1.616,3.188,177,8.65,9.34,0.1820223,0,50.72,58.03,33.47,35.22
"2016-11-06 18:20:00",260811,0.192,16.86,1.319,100,0,0,870.8782,0,-1.316,3.186,190,8.65,9.34,0.2275278,0,50.72,58.03,33.47,35.22
"2016-11-06 18:30:00",260812,0.204,310.5,1.21,100,0,0,870.8782,0,-1.34,3.187,191,8.65,9.34,0.1933987,0,50.72,58.03,33.47,35.22
"2016-11-06 18:40:00",260813,0.216,336.6,0.999,100,0,0,871.0258,0,-1.215,3.187,193,8.67,9.34,0.087219,0,50.66,58.03,33.46,35.22
"2016-11-06 18:50:00",260814,0.155,5.257,0.951,100,0,0,871.1312,0,-1.015,3.184,196,8.66,9.34,0.1023875,0,50.66,58.03,33.46,35.22
"2016-11-06 19:00:00",260815,0.118,349.8,1.006,100,0,0,871.1312,0,-1.165,3.185,190,8.65,9.34,0.2275278,0,50.72,58.03,33.47,35.22
"2016-11-06 19:10:00",260816,0.155,12.65,1.04,100,0,0,871.186,0,-1.065,3.185,183,8.65,9.35,0.2540727,0,50.72,58.03,33.47,35.22
"2016-11-06 19:20:00",260817,0.216,4.417,0.949,100,0,0,871.2745,0,-1.115,3.186,192,8.65,9.35,0.2275278,0,50.66,58.03,33.46,35.22
"2016-11-06 19:30:00",260818,0.158,297.7,0.955,100,0,0,871.3336,0,-1.19,3.186,187,8.65,9.36,0.2275278,0,50.72,58.03,33.47,35.22
"2016-11-06 19:40:00",260819,0.029,328.9,0.977,100,0,0,871.3841,0,-1.064,3.185,188,8.65,9.41,0.2540727,0,50.66,58.03,33.46,35.22
"2016-11-06 19:50:00",260820,0.098,324.7,0.855,100,0,0,871.4284,0,-1.064,3.185,191,8.65,9.42,0.204775,0,50.66,58.03,33.46,35.22
"2016-11-06 20:00:00",260821,0.027,57.66,0.956,100,0,0,871.616,0,-1.115,3.185,191,8.65,9.43,0.318539,0,50.72,58.03,33.47,35.22
"2016-11-06 20:10:00",260822,0.191,351.4,0.903,100,0,0,871.616,0,-1.014,3.186,191,8.65,9.43,0.1782301,0,50.72,58.03,33.47,35.22
"2016-11-06 20:20:00",260823,0.122,331.6,0.676,100,0,0,871.6687,0,-1.064,3.187,190,8.67,9.43,0.06446622,0,50.72,58.03,33.47,35.22
"2016-11-06 20:30:00",260824,0.112,319.1,0.607,100,0,0,871.7509,0,-0.914,3.186,191,8.66,9.43,0.087219,0,50.66,58.03,33.46,35.22
"2016-11-06 20:40:00",260825,0.043,313.8,0.598,100,0,0,871.8246,0,-0.989,3.186,192,8.62,9.43,0.2275278,0,50.66,57.97,33.46,35.21
"2016-11-06 20:50:00",260826,0.17,20.15,0.604,100,0,0,871.8372,0,-0.913,3.185,194,8.57,9.43,0.2313199,0,50.66,57.97,33.46,35.21
"2016-11-06 21:00:00",260827,0.083,12.41,0.62,100,0,0,871.8183,0,-1.013,3.186,190,8.56,9.43,0.2313199,0,50.72,57.97,33.47,35.21
"2016-11-06 21:10:00",260828,0.2,104.3,0.713,100,0,0,871.8793,0,-1.014,3.187,192,8.56,9.43,0.3337075,0,50.72,57.97,33.47,35.21
"2016-11-06 21:20:00",260829,0.23,82.9,0.604,100,0,0,871.8899,0,-1.063,3.187,192,8.56,9.43,0.1971908,0,50.66,57.97,33.46,35.21
"2016-11-06 21:30:00",260830,0.186,12.48,0.546,100,0,0,871.8309,0,-0.963,3.187,192,8.56,9.43,0.2237357,0,50.66,57.97,33.46,35.21
"2016-11-06 21:40:00",260831,0.229,13.44,0.415,100,0,0,871.8162,0,-0.962,3.187,179,8.57,9.43,0.204775,0,50.66,57.97,33.46,35.21
"2016-11-06 21:50:00",260832,0.106,44.86,0.401,100,0,0,871.7509,0,-0.862,3.186,184,8.54,9.43,0.2237357,0,50.66,57.97,33.46,35.21
"2016-11-06 22:00:00",260833,0.275,223.8,0.436,100,0,0,871.852,0,-0.837,3.186,192,8.52,9.43,0.2502806,0,50.66,57.97,33.46,35.21
"2016-11-06 22:10:00",260834,0.201,29.02,0.405,100,0,0,871.8224,0,-0.762,3.186,188,8.52,9.43,0.2464885,0,50.66,57.97,33.46,35.21
"2016-11-06 22:20:00",260835,0.159,9.17,0.351,100,0,0,871.7571,0,-0.862,3.186,198,8.49,9.43,0.2426963,0,50.66,57.97,33.46,35.21
"2016-11-06 22:30:00",260836,0.09,32.5,0.398,100,0,0,871.675,0,-0.862,3.187,198,8.47,9.43,0.3223311,0,50.66,57.97,33.46,35.21
"2016-11-06 22:40:00",260837,0.093,28.99,0.425,100,0,0,871.637,0,-1.013,3.187,193,8.47,9.43,0.3071626,0,50.66,57.97,33.46,35.21
"2016-11-06 22:50:00",260838,0.101,76.05,0.562,100,0,0,871.637,0,-1.063,3.188,197,8.47,9.44,0.3830052,0,50.66,57.97,33.46,35.21
"2016-11-06 23:00:00",260839,0.296,263.1,0.361,100,0,0,871.6455,0,-1.162,3.189,196,8.47,9.43,0.261657,0,50.72,57.97,33.47,35.21
"2016-11-06 23:10:00",260840,0.039,6.176,0.268,100,0,0,871.7297,0,-1.162,3.19,197,8.47,9.43,0.1782301,0,50.72,57.97,33.47,35.21
"2016-11-06 23:20:00",260841,0.204,357.2,0.18,100,0,0,871.8857,0,-1.062,3.19,188,8.46,9.44,0.2009829,0,50.66,57.97,33.46,35.21
"2016-11-06 23:30:00",260842,0.141,103.4,0.118,100,0,0,871.9553,0,-0.962,3.189,196,8.41,9.44,0.2844098,0,50.66,57.97,33.46,35.21
"2016-11-06 23:40:00",260843,0.124,123.6,0.164,100,0,0,871.8857,0,-1.062,3.189,192,8.4,9.48,0.4171343,0,50.66,57.97,33.46,35.21
"2016-11-06 23:50:00",260844,0.028,197.5,0.325,100,0,0,871.6834,0,-0.963,3.188,192,8.4,9.48,0.4512635,0,50.66,57.97,33.46,35.21
